User: anonymous   Login
Location: Bishausen
(51.6334°N, 9.9631°E)
Time: 15:45:26
(UTC+00:00)
Language:

COSMOS 468 DEB - Orbit

View from above orbital plane
View from above orbital plane
View from above satellite
View from above satellite

Ground track
Ground track

The orbit data is extracted from the following two-line orbital elements,

1 37887U 71114F   24274.03499310  .00001413  00000-0  44077-3 0  9999
2 37887  74.0180 178.6403 0013609 357.5999   2.5089 14.41711270167343
Epoch (UTC): 30 September 2024 00:50:23
Eccentricity: 0.0013609
inclination: 74.0180°
perigee height: 743 km
apogee height: 762 km
right ascension of ascending node: 178.6403°
argument of perigee: 357.5999°
revolutions per day: 14.41711270
mean anomaly at epoch: 2.5089°
orbit number at epoch: 16734

The dashed part of the orbit path shows where the satellite is in the earth's shadow,  

DLR